Location: Newark
(54.7500°N, 9.9000°E)
Time: 17:22:25
(UTC+00:00)

Envisat - Visible Passes

Search period start: 27 January 2021 00:00
Search period end: 06 February 2021 00:00
Orbit: 764 x 766 km, 98.1° (Epoch: 26 January)

Date Brightness Start Highest point End Pass type
(mag) Time Alt. Az. Time Alt. Az. Time Alt. Az.
27 Jan 3.7 04:59:03 10° NNE 05:04:04 55° E 05:09:03 10° S visible
27 Jan 3.7 16:20:41 10° S 16:25:43 60° WSW 16:30:46 10° NNW visible
27 Jan 6.4 18:04:25 10° W 18:05:50 11° W 18:07:16 10° WNW visible
28 Jan 4.9 04:22:32 10° NNE 04:26:59 29° E 04:31:24 10° SSE visible
28 Jan 3.1 06:01:20 10° N 06:06:18 54° WNW 06:11:14 10° SW visible
28 Jan 5.8 17:24:37 10° SW 17:28:27 21° W 17:32:18 10° NW visible
29 Jan 5.8 03:46:35 10° NE 03:49:43 16° E 03:52:49 10° ESE visible
29 Jan 3.0 05:24:25 10° NNE 05:29:32 84° ESE 05:34:38 10° SSW visible
29 Jan 4.7 16:46:31 10° SSW 16:51:15 39° W 16:56:02 10° NNW visible
30 Jan 4.1 04:47:41 10° NNE 04:52:36 45° E 04:57:27 10° S visible
30 Jan 3.6 06:26:56 10° N 06:31:34 36° WNW 06:36:09 10° SW visible
30 Jan 6.2 17:51:43 10° WSW 17:54:13 14° W 17:56:45 10° NW visible
31 Jan 5.3 04:11:18 10° NE 04:15:27 25° E 04:19:36 10° SE visible
31 Jan 3.0 05:49:52 10° N 05:54:55 64° WNW 05:59:56 10° SSW visible
31 Jan 5.5 17:12:42 10° SSW 17:16:54 25° W 17:21:07 10° NW visible
01 Feb 6.1 03:35:43 10° NE 03:38:07 13° E 03:40:29 10° ESE visible
01 Feb 3.3 05:12:59 10° NNE 05:18:06 71° ESE 05:23:10 10° S visible
01 Feb 4.3 16:34:53 10° S 16:39:46 47° W 16:44:42 10° NNW visible
02 Feb 4.5 04:36:21 10° NNE 04:41:06 38° E 04:45:49 10° SSE visible
02 Feb 3.4 06:15:25 10° N 06:20:13 42° WNW 06:24:59 10° SW visible
02 Feb 6.0 17:39:26 10° SW 17:42:38 17° W 17:45:51 10° NW visible
03 Feb 5.5 04:00:07 10° NE 04:03:54 21° E 04:07:40 10° SE visible
03 Feb 2.9 05:38:25 10° NNE 05:43:32 77° WNW 05:48:35 10° SSW visible
03 Feb 5.2 17:00:55 10° SSW 17:05:22 30° W 17:09:52 10° NNW visible
04 Feb 6.3 03:25:21 10° ENE 03:26:30 11° E 03:27:38 10° E visible
04 Feb 3.6 05:01:36 10° NNE 05:06:39 58° E 05:11:40 10° S visible
04 Feb 6.6 18:07:50 10° W 18:08:29 10° W 18:09:07 10° WNW visible
05 Feb 4.9 04:25:03 10° NNE 04:29:36 31° E 04:34:06 10° SSE visible
05 Feb 3.2 06:03:55 10° N 06:08:51 50° WNW 06:13:45 10° SW visible
05 Feb 5.9 17:27:22 10° SW 17:31:04 20° W 17:34:46 10° NW visible
